Location: Melbourne
(37.8666°S, 145.1333°E)
Time: 04:56:57
(UTC+10:00)

Amateur Radio Satellites - All Passes

Search period start: 28 September 2016 04:26
Search period end: 29 September 2016 04:26
Location: Melbourne, 37.8666°S, 145.1333°E

Satellite Date Start Highest point End Downlink Frequencies (MHz)
Time Altitude Azimuth
AIST 1 28 Sep 04:27:22 04:31:48 67° 275° (W) 04:36:11
BRITE-PL 28 Sep 04:27:23 04:30:52 26° 110° (ESE) 04:34:28 437.365/2234.400
HORYU 2 28 Sep 04:35:05 04:39:36 73° 105° (ESE) 04:44:10 437.375
SO-50 28 Sep 04:37:35 04:40:01 14° 223° (SW) 04:42:30 436.795
O/OREOS (USA 219) 28 Sep 04:39:14 04:43:37 46° 115° (ESE) 04:47:57 437.305
Cosmos 2504 28 Sep 04:43:43 04:50:03 24° 260° (W) 04:56:06 435.465 / 435.565
STARS 28 Sep 04:54:08 04:58:40 82° 78° (ENE) 05:03:08 437.465
NOAA 15 28 Sep 05:02:01 05:06:48 37° 111° (ESE) 05:11:38 137.62
AO-7 28 Sep 05:06:02 05:10:45 16° 271° (W) 05:15:29 29.400- 29.500
CUBESAT XI-V 28 Sep 05:07:22 05:11:52 46° 81° (E) 05:16:22 437.345
Cubesat XI-IV 28 Sep 05:15:56 05:20:57 40° 110° (ESE) 05:26:01 437.490
CUTE-I 28 Sep 05:16:15 05:21:17 41° 110° (ESE) 05:26:22 437.470
Cosmos 2491 28 Sep 05:25:40 05:26:56 10° 238° (WSW) 05:28:11 435.465 / 435.565
MOZHAYETS 4 28 Sep 05:27:58 05:30:29 15° 244° (WSW) 05:32:59
LilacSat-2 28 Sep 05:42:25 05:46:19 71° 105° (ESE) 05:50:17 437.200
NOAA 18 28 Sep 05:52:15 05:57:47 74° 106° (ESE) 06:03:24 137.9125
GONETS M04 28 Sep 05:54:21 05:59:46 17° 116° (ESE) 06:05:09
GOMX 1 28 Sep 05:56:31 06:00:44 72° 281° (W) 06:05:14 467.674
KKS-1 28 Sep 05:58:00 05:59:21 11° 242° (WSW) 06:00:42 437.445
CINEMA 3 28 Sep 06:01:00 06:03:39 15° 117° (ESE) 06:06:21 145.822/145.860
Cosmos 2499 28 Sep 06:03:24 06:08:09 16° 118° (ESE) 06:12:42 435.465 / 435.565
BRITE-PL 28 Sep 06:06:09 06:09:22 21° 274° (W) 06:12:40 437.365/2234.400
O/OREOS (USA 219) 28 Sep 06:20:02 06:22:34 15° 279° (W) 06:25:05 437.305
DOVE 4 28 Sep 06:20:11 06:24:35 85° 102° (ESE) 06:29:19 437.250
CUTE 1.7 + AOD 2 28 Sep 06:26:36 06:29:21 17° 113° (ESE) 06:32:08 437.475
CANX-2 28 Sep 06:27:20 06:30:27 20° 112° (ESE) 06:33:35 2200.000
CUSAT 1 28 Sep 06:28:48 06:32:43 32° 83° (E) 06:35:53 437.405
SEEDS 28 Sep 06:30:03 06:31:51 12° 115° (ESE) 06:33:38 437.485
HO-68 28 Sep 06:38:13 06:44:52 43° 114° (ESE) 06:51:36 435.675
NOAA 15 28 Sep 06:42:18 06:46:37 25° 275° (W) 06:50:59 137.62
CUBESAT XI-V 28 Sep 06:45:52 06:48:52 17° 246° (WSW) 06:51:50 437.345
AAUSAT CUBESAT 2 28 Sep 06:54:12 06:55:48 12° 115° (ESE) 06:57:26 437.432
Cubesat XI-IV 28 Sep 06:56:47 07:01:07 24° 275° (W) 07:05:28 437.490
CUTE-I 28 Sep 06:57:09 07:01:26 24° 274° (W) 07:05:45 437.470
RS-15 28 Sep 06:58:00 07:08:58 50° 70° (ENE) 07:19:28 29.354- 29.394
CUBEBUG 2 28 Sep 07:10:51 07:14:29 22° 113° (ESE) 07:18:10 437.445
FUNcube-1 28 Sep 07:21:32 07:22:34 11° 117° (ESE) 07:23:36 145.935
UWE-3 28 Sep 07:29:55 07:33:36 23° 112° (ESE) 07:37:19 435.000/436.395/437.385
COMPASS 1 28 Sep 07:35:16 07:39:17 46° 106° (ESE) 07:43:20 437.405
CINEMA 3 28 Sep 07:35:37 07:40:10 57° 280° (W) 07:45:01 145.822/145.860
STRAND 1 28 Sep 07:35:42 07:40:53 71° 78° (ENE) 07:45:59 437.568
NOAA 18 28 Sep 07:36:22 07:38:57 13° 271° (W) 07:41:34 137.9125
ISS 28 Sep 07:39:03 07:42:18 51° 43° (NE) 07:45:35 145.825
GONETS M04 28 Sep 07:48:57 07:57:49 89° 88° (E) 08:06:39
DANDE 28 Sep 07:53:47 07:59:51 79° 262° (W) 08:04:23 436.750
Cosmos 2499 28 Sep 07:54:11 08:02:40 87° 96° (E) 08:10:23 435.465 / 435.565
Oscar 11 28 Sep 07:59:07 08:02:47 27° 110° (ESE) 08:06:29 145.826/435.025
ZACube-1 28 Sep 07:59:54 08:03:55 30° 110° (ESE) 08:07:58 437.345
CUTE 1.7 + AOD 2 28 Sep 08:00:50 08:04:52 39° 278° (W) 08:08:55 437.475
CANX-2 28 Sep 08:02:11 08:06:03 32° 277° (W) 08:09:58 2200.000
SEEDS 28 Sep 08:02:53 08:07:02 54° 280° (W) 08:11:14 437.485
CUSAT 1 28 Sep 08:12:57 08:14:31 12° 257° (WSW) 08:15:58 437.405
DELFI C3 28 Sep 08:17:00 08:19:18 15° 113° (ESE) 08:21:38 145.870
PRISM 28 Sep 08:20:52 08:23:42 17° 86° (E) 08:26:31 437.425
HO-68 28 Sep 08:26:10 08:32:35 35° 277° (W) 08:39:06 435.675
AAUSAT CUBESAT 2 28 Sep 08:26:42 08:30:47 54° 280° (W) 08:34:55 437.432
HUMSAT D 28 Sep 08:27:13 08:28:11 11° 116° (ESE) 08:29:09 437.325/437.525
AO-85 28 Sep 08:35:09 08:39:07 63° 63° (ENE) 08:43:24 145.980
CUBEBUG 2 28 Sep 08:46:30 08:50:49 36° 277° (W) 08:55:16 437.445
FUNcube-1 28 Sep 08:53:31 08:58:05 77° 282° (WNW) 09:02:46 145.935
UWE-3 28 Sep 09:05:36 09:09:48 33° 277° (W) 09:14:07 435.000/436.395/437.385
RS-15 28 Sep 09:10:22 09:21:20 48° 229° (SW) 09:31:58 29.354- 29.394
JUGNU 28 Sep 09:11:25 09:13:52 13° 4° (N) 09:16:19 437.505
COMPASS 1 28 Sep 09:13:06 09:15:03 13° 272° (W) 09:17:01 437.405
ISS 28 Sep 09:16:22 09:19:00 21° 207° (SSW) 09:21:38 145.825
STRAND 1 28 Sep 09:16:54 09:19:23 14° 242° (WSW) 09:21:52 437.568
Oscar 11 28 Sep 09:35:14 09:38:49 25° 275° (W) 09:42:27 145.826/435.025
TIGRISAT 28 Sep 09:36:14 09:39:04 16° 88° (E) 09:41:49 435.000
ZACube-1 28 Sep 09:36:22 09:40:08 25° 275° (W) 09:43:58 437.345
GONETS M04 28 Sep 09:48:26 09:53:19 16° 258° (WSW) 09:58:12
Cosmos 2499 28 Sep 09:49:57 09:54:23 16° 257° (WSW) 09:58:39 435.465 / 435.565
DELFI C3 28 Sep 09:50:05 09:53:47 37° 278° (W) 09:57:33 145.870
PRISM 28 Sep 09:55:16 09:59:04 34° 251° (WSW) 10:02:49 437.425
HUMSAT D 28 Sep 09:58:53 10:03:11 67° 281° (W) 10:07:32 437.325/437.525
UNISAT 6 28 Sep 10:15:27 10:19:56 47° 81° (E) 10:24:14 437.425
AO-85 28 Sep 10:17:44 10:20:04 14° 222° (SW) 10:22:29 145.980
DX 1 28 Sep 10:30:22 10:32:08 12° 117° (ESE) 10:33:53 434.975-435.025
ESTCUBE 1 28 Sep 10:34:11 10:38:28 44° 107° (ESE) 10:42:48 437.505/2401.250
VELOX 1 28 Sep 10:35:37 10:39:03 22° 112° (ESE) 10:42:30 145.980
CUBEBUG 1 28 Sep 10:40:03 10:43:53 31° 109° (ESE) 10:47:47 437.445
AUBIESAT-1 28 Sep 10:42:26 10:45:24 21° 118° (ESE) 10:48:32 437.475
ANTELSAT 28 Sep 10:50:47 10:55:24 70° 255° (WSW) 10:59:50 437.575/2403.000
QB50P2 28 Sep 10:51:37 10:54:06 15° 88° (E) 10:56:33 145.880/145.840
POLYITAN 1 28 Sep 10:53:51 10:56:20 15° 88° (E) 10:58:47 437.675
JUGNU 28 Sep 10:59:55 11:02:01 12° 353° (N) 11:04:06 437.505
TIGRISAT 28 Sep 11:11:34 11:15:58 44° 252° (WSW) 11:20:13 435.000
M-CUBED/EXP-1 PRIME 28 Sep 11:18:28 11:22:12 68° 109° (ESE) 11:26:21 437.505
SPROUT 28 Sep 11:21:56 11:25:56 37° 108° (ESE) 11:29:58 437.525
50 SAT 28 Sep 11:23:52 11:27:30 75° 103° (ESE) 11:31:09 437.505
AISAT 28 Sep 11:27:06 11:31:31 89° 104° (ESE) 11:36:01 437.250
SO-50 28 Sep 11:27:24 11:31:55 40° 126° (SE) 11:36:27 436.795
RS-15 28 Sep 11:30:28 11:37:26 18° 198° (SSW) 11:44:20 29.354- 29.394
DUCHIFAT 1 28 Sep 11:30:58 11:34:56 34° 82° (E) 11:38:48 145.980
QB50P1 28 Sep 11:32:42 11:36:50 41° 82° (E) 11:40:53 145.935-145.965
UKube-1 28 Sep 11:35:23 11:39:33 48° 107° (ESE) 11:43:47 .
BUGSAT 1 28 Sep 11:35:25 11:37:59 15° 87° (E) 11:40:30 437.445
Cosmos 2491 28 Sep 11:41:06 11:41:48 10° 122° (ESE) 11:42:30 435.465 / 435.565
POPSAT HIP 1 28 Sep 11:46:04 11:50:23 59° 79° (E) 11:54:36 437.405
UNISAT 6 28 Sep 11:53:23 11:56:11 16° 245° (WSW) 11:58:57 437.425
SRMSAT 28 Sep 11:55:24 11:58:09 13° 2° (N) 12:00:54 437.500
NANOSAT C BR1 28 Sep 12:02:32 12:06:54 89° 60° (ENE) 12:11:10 145.865
DX 1 28 Sep 12:03:28 12:07:45 59° 281° (WNW) 12:12:08 434.975-435.025
BEESAT 2 28 Sep 12:03:43 12:06:16 16° 70° (ENE) 12:08:49 435.950
JAS-2 28 Sep 12:11:00 12:16:14 64° 78° (ENE) 12:21:44 435.910
VELOX 1 28 Sep 12:11:24 12:15:19 31° 277° (W) 12:19:17 145.980
ESTCUBE 1 28 Sep 12:12:43 12:15:28 16° 273° (W) 12:18:14 437.505/2401.250
AUBIESAT-1 28 Sep 12:16:17 12:19:38 28° 280° (W) 12:23:14 437.475
CUBEBUG 1 28 Sep 12:16:55 12:20:11 21° 274° (W) 12:23:31 437.445
QB50P2 28 Sep 12:25:58 12:30:05 42° 252° (WSW) 12:34:08 145.880/145.840
POLYITAN 1 28 Sep 12:28:12 12:32:19 42° 252° (WSW) 12:36:22 437.675
ISS 28 Sep 12:33:58 12:34:24 10° 166° (SSE) 12:34:50 145.825
TISAT 1 28 Sep 12:42:43 12:46:53 61° 105° (ESE) 12:51:09 437.305
BEESAT 3 28 Sep 12:44:32 12:48:29 75° 239° (WSW) 12:52:26 437.485
ITUPSAT 1 28 Sep 12:57:07 13:00:19 18° 115° (ESE) 13:03:32 437.325
SPROUT 28 Sep 12:59:09 13:01:58 17° 273° (W) 13:04:51 437.525
Oscar 19 28 Sep 13:03:49 13:08:20 29° 84° (E) 13:12:49 437.125/150
DUCHIFAT 1 28 Sep 13:07:17 13:10:20 19° 247° (WSW) 13:13:22 145.980
SO-50 28 Sep 13:08:27 13:12:08 22° 291° (WNW) 13:15:50 436.795
SWISSCUBE 28 Sep 13:09:20 13:13:21 27° 112° (ESE) 13:17:22 437.505
BUGSAT 1 28 Sep 13:09:26 13:13:31 41° 252° (WSW) 13:17:31 437.445
QB50P1 28 Sep 13:09:33 13:12:13 16° 246° (WSW) 13:14:53 145.935-145.965
UKube-1 28 Sep 13:13:46 13:15:50 13° 272° (W) 13:17:56 .
BEESAT 28 Sep 13:22:02 13:26:17 32° 111° (ESE) 13:30:34 436.000
POPSAT HIP 1 28 Sep 13:23:59 13:25:36 12° 244° (WSW) 13:27:12 437.405
Cosmos 2491 28 Sep 13:31:56 13:40:39 62° 100° (E) 13:49:17 435.465 / 435.565
BEESAT 2 28 Sep 13:40:02 13:43:46 37° 234° (SW) 13:47:31 435.950
SRMSAT 28 Sep 13:44:45 13:46:28 11° 351° (N) 13:48:10 437.500
RS-15 28 Sep 13:49:02 13:56:05 18° 160° (SSE) 14:03:05 29.354- 29.394
JAS-2 28 Sep 13:58:04 14:00:50 14° 243° (WSW) 14:03:39 435.910
ITAMSAT 1 28 Sep 13:59:27 14:00:44 11° 90° (E) 14:02:01 435.822/435.867
Gurwin Techsat 1B 28 Sep 14:00:05 14:05:18 48° 80° (E) 14:10:25 435.225
ISS 28 Sep 14:08:37 14:11:42 33° 148° (SSE) 14:14:46 145.825
TISAT 1 28 Sep 14:22:46 14:22:55 10° 270° (W) 14:23:03 437.305
AIST 2 28 Sep 14:24:31 14:27:30 19° 69° (ENE) 14:30:31 435.215
YUBILEINY 28 Sep 14:28:34 14:37:09 64° 88° (E) 14:45:52 435.215
ITUPSAT 1 28 Sep 14:33:05 14:37:44 48° 280° (W) 14:42:27 437.325
Oscar 19 28 Sep 14:42:59 14:47:35 32° 248° (WSW) 14:52:09 437.125/150
SWISSCUBE 28 Sep 14:46:45 14:50:59 30° 277° (W) 14:55:16 437.505
MOZHAYETS 4 28 Sep 14:49:07 14:53:29 41° 108° (ESE) 14:57:52
BEESAT 28 Sep 15:00:06 15:04:02 25° 276° (W) 15:08:01 436.000
AO-7 28 Sep 15:12:52 15:20:25 35° 82° (E) 15:27:51 29.400- 29.500
KKS-1 28 Sep 15:14:52 15:19:11 50° 107° (ESE) 15:23:35 437.445
Cosmos 2504 28 Sep 15:23:19 15:31:38 59° 90° (E) 15:40:22 435.465 / 435.565
Cosmos 2491 28 Sep 15:29:57 15:36:45 26° 262° (W) 15:43:34 435.465 / 435.565
PCSat 28 Sep 15:30:41 15:35:44 41° 69° (ENE) 15:40:49 145.827
ITAMSAT 1 28 Sep 15:35:29 15:40:46 79° 255° (WSW) 15:45:57 435.822/435.867
Gurwin Techsat 1B 28 Sep 15:40:55 15:44:51 21° 245° (WSW) 15:48:45 435.225
ISS 28 Sep 15:45:22 15:48:05 23° 311° (NW) 15:50:46 145.825
STARS 28 Sep 15:48:36 15:52:57 56° 106° (ESE) 15:57:22 437.465
RS-15 28 Sep 16:01:21 16:11:55 51° 130° (SE) 16:22:34 29.354- 29.394
AIST 2 28 Sep 16:01:52 16:05:44 35° 234° (SW) 16:09:37 435.215
CUBESAT XI-V 28 Sep 16:08:50 16:13:04 36° 109° (ESE) 16:17:21 437.345
YUBILEINY 28 Sep 16:27:33 16:34:33 26° 249° (WSW) 16:41:41 435.215
MOZHAYETS 4 28 Sep 16:27:37 16:30:47 18° 273° (W) 16:33:59
HORYU 2 28 Sep 16:29:12 16:31:57 16° 87° (E) 16:34:41 437.375
BRITE-PL 28 Sep 16:34:00 16:36:17 13° 89° (E) 16:38:37 437.365/2234.400
KKS-1 28 Sep 16:53:47 16:56:01 14° 272° (W) 16:58:18 437.445
AIST 1 28 Sep 16:54:24 16:58:40 79° 85° (E) 17:03:02
CUSAT 1 28 Sep 17:02:50 17:04:32 13° 103° (ESE) 17:06:23 437.405
AO-7 28 Sep 17:05:16 17:13:18 50° 245° (WSW) 17:21:16 29.400- 29.500
AO-85 28 Sep 17:07:18 17:12:07 39° 127° (SE) 17:17:07 145.980
PCSat 28 Sep 17:14:39 17:19:14 27° 232° (SW) 17:23:51 145.827
Cosmos 2504 28 Sep 17:18:12 17:25:28 30° 250° (WSW) 17:33:04 435.465 / 435.565
NOAA 15 28 Sep 17:20:05 17:23:12 16° 88° (E) 17:26:17 137.62
STARS 28 Sep 17:27:57 17:29:38 12° 271° (W) 17:31:20 437.465
Cubesat XI-IV 28 Sep 17:35:56 17:39:37 18° 87° (E) 17:43:14 437.490
CUTE-I 28 Sep 17:36:04 17:39:46 19° 87° (E) 17:43:26 437.470
CUBESAT XI-V 28 Sep 17:47:08 17:50:32 20° 274° (W) 17:53:57 437.345
GOMX 1 28 Sep 17:59:07 18:04:10 41° 82° (E) 18:09:20 467.674
HORYU 2 28 Sep 18:04:24 18:08:42 43° 252° (WSW) 18:12:56 437.375
BRITE-PL 28 Sep 18:09:58 18:15:05 72° 256° (WSW) 18:20:31 437.365/2234.400
RS-15 28 Sep 18:14:01 18:24:02 45° 289° (WNW) 18:34:18 29.354- 29.394
NOAA 18 28 Sep 18:16:32 18:21:40 36° 82° (E) 18:26:43 137.9125
DOVE 4 28 Sep 18:20:40 18:25:21 30° 85° (E) 18:30:01 437.250
DANDE 28 Sep 18:34:09 18:36:45 42° 100° (E) 18:39:37 436.750
Cosmos 2499 28 Sep 18:39:39 18:43:22 13° 105° (ESE) 18:47:06 435.465 / 435.565
CUSAT 1 28 Sep 18:43:38 18:46:21 24° 277° (W) 18:49:34 437.405
AO-85 28 Sep 18:48:02 18:52:29 28° 292° (WNW) 18:57:02 145.980
O/OREOS (USA 219) 28 Sep 18:49:20 18:53:52 78° 71° (ENE) 18:58:26 437.305
STRAND 1 28 Sep 18:49:32 18:54:43 84° 105° (ESE) 18:59:58 437.568
LilacSat-2 28 Sep 18:51:48 18:55:38 57° 255° (WSW) 18:59:24 437.200
GONETS M04 28 Sep 18:54:18 19:00:10 20° 100° (E) 19:06:04
NOAA 15 28 Sep 18:58:05 19:03:20 59° 253° (WSW) 19:08:32 137.62
PRISM 28 Sep 19:10:43 19:11:32 10° 117° (ESE) 19:12:20 437.425
Cubesat XI-IV 28 Sep 19:14:42 19:19:58 52° 252° (WSW) 19:25:08 437.490
CUTE-I 28 Sep 19:14:50 19:20:04 51° 251° (WSW) 19:25:13 437.470
CINEMA 3 28 Sep 19:32:11 19:37:00 42° 82° (E) 19:41:37 145.822/145.860
GOMX 1 28 Sep 19:37:44 19:41:58 25° 248° (WSW) 19:46:17 467.674
CUTE 1.7 + AOD 2 28 Sep 19:47:22 19:51:22 38° 82° (E) 19:55:19 437.475
CANX-2 28 Sep 19:48:33 19:52:41 46° 81° (E) 19:56:46 2200.000
SEEDS 28 Sep 19:48:50 19:52:27 27° 84° (E) 19:56:02 437.485
HO-68 28 Sep 19:54:52 20:01:57 52° 79° (E) 20:08:56 435.675
NOAA 18 28 Sep 19:57:23 20:02:09 29° 246° (WSW) 20:06:51 137.9125
DOVE 4 28 Sep 19:58:14 20:02:56 32° 250° (WSW) 20:07:37 437.250
AAUSAT CUBESAT 2 28 Sep 20:11:03 20:14:33 25° 85° (E) 20:18:00 437.432
Cosmos 2499 28 Sep 20:26:11 20:34:52 76° 86° (E) 20:43:51 435.465 / 435.565
O/OREOS (USA 219) 28 Sep 20:32:42 20:33:51 11° 233° (SW) 20:35:00 437.305
TIGRISAT 28 Sep 20:33:51 20:36:01 13° 117° (ESE) 20:38:14 435.000
CUBEBUG 2 28 Sep 20:38:59 20:43:38 57° 80° (E) 20:48:03 437.445
PRISM 28 Sep 20:42:13 20:46:15 61° 281° (W) 20:50:22 437.425
FUNcube-1 28 Sep 20:44:16 20:47:50 23° 86° (E) 20:51:16 145.935
GONETS M04 28 Sep 20:47:15 20:55:57 76° 262° (W) 21:04:45
COMPASS 1 28 Sep 20:55:00 20:59:12 71° 256° (WSW) 21:03:21 437.405
UWE-3 28 Sep 20:56:48 21:01:20 58° 80° (E) 21:05:39 435.000/436.395/437.385
BEESAT 3 28 Sep 21:03:29 21:07:03 33° 126° (SE) 21:10:35 437.485
CINEMA 3 28 Sep 21:10:01 21:13:45 21° 246° (WSW) 21:17:26 145.822/145.860
UNISAT 6 28 Sep 21:12:05 21:16:21 34° 110° (ESE) 21:20:40 437.425
Oscar 11 28 Sep 21:23:15 21:27:37 69° 79° (ENE) 21:31:54 145.826/435.025
CUTE 1.7 + AOD 2 28 Sep 21:24:09 21:26:52 17° 247° (WSW) 21:29:34 437.475
SEEDS 28 Sep 21:24:42 21:28:00 22° 249° (WSW) 21:31:16 437.485
ZACube-1 28 Sep 21:25:44 21:30:14 77° 78° (ENE) 21:34:32 437.345
CANX-2 28 Sep 21:25:52 21:28:06 14° 246° (WSW) 21:30:19 2200.000
DELFI C3 28 Sep 21:29:17 21:32:47 28° 84° (E) 21:36:16 145.870
HO-68 28 Sep 21:43:13 21:49:16 30° 242° (WSW) 21:55:17 435.675
HUMSAT D 28 Sep 21:44:54 21:48:07 21° 86° (E) 21:51:18 437.325/437.525
AAUSAT CUBESAT 2 28 Sep 21:46:34 21:49:54 23° 249° (WSW) 21:53:12 437.432
ANTELSAT 28 Sep 21:46:55 21:51:38 81° 105° (ESE) 21:56:26 437.575/2403.000
PHONESAT 2.4 28 Sep 21:53:57 21:56:42 33° 26° (NNE) 21:59:28 2401.200-2431.200
BEESAT 2 28 Sep 21:59:14 22:03:11 68° 122° (ESE) 22:07:05 435.950
TIGRISAT 28 Sep 22:07:26 22:12:06 65° 281° (W) 22:16:52 435.000
CUBEBUG 2 28 Sep 22:17:19 22:19:40 14° 244° (WSW) 22:21:58 437.445
FUNcube-1 28 Sep 22:20:14 22:24:01 28° 250° (WSW) 22:27:41 145.935
DUCHIFAT 1 28 Sep 22:21:27 22:24:41 21° 112° (ESE) 22:27:55 145.980
JAS-2 28 Sep 22:22:06 22:27:07 25° 113° (ESE) 22:31:44 435.910
Cosmos 2499 28 Sep 22:22:16 22:28:52 23° 247° (WSW) 22:35:38 435.465 / 435.565
QB50P1 28 Sep 22:23:32 22:27:04 25° 111° (ESE) 22:30:39 145.935-145.965
ESTCUBE 1 28 Sep 22:31:17 22:32:08 10° 90° (E) 22:32:59 437.505/2401.250
UWE-3 28 Sep 22:35:08 22:37:12 13° 244° (WSW) 22:39:13 435.000/436.395/437.385
POPSAT HIP 1 28 Sep 22:36:38 22:40:32 34° 109° (ESE) 22:44:30 437.405
BEESAT 3 28 Sep 22:41:46 22:44:26 18° 291° (WNW) 22:47:05 437.485
UNISAT 6 28 Sep 22:49:24 22:53:04 22° 274° (W) 22:56:48 437.425
GONETS M04 28 Sep 22:50:25 22:54:22 14° 241° (WSW) 22:58:21
NANOSAT C BR1 28 Sep 22:52:28 22:56:36 50° 107° (ESE) 23:00:49 145.865
Oscar 11 28 Sep 23:02:22 23:03:07 10° 243° (WSW) 23:03:52 145.826/435.025
DELFI C3 28 Sep 23:04:32 23:07:25 19° 248° (WSW) 23:10:17 145.870
QB50P2 28 Sep 23:16:03 23:20:20 74° 281° (WNW) 23:24:43 145.880/145.840
POLYITAN 1 28 Sep 23:18:14 23:22:33 74° 281° (W) 23:26:56 437.675
AISAT 28 Sep 23:19:53 23:23:11 20° 86° (E) 23:26:27 437.250
HUMSAT D 28 Sep 23:20:09 23:23:42 27° 250° (WSW) 23:27:12 437.325/437.525
PHONESAT 2.4 28 Sep 23:29:46 23:32:44 63° 191° (SSW) 23:35:43 2401.200-2431.200
DX 1 28 Sep 23:53:46 23:57:32 26° 84° (E) 00:01:15 434.975-435.025
AUBIESAT-1 28 Sep 23:56:11 23:59:57 23° 81° (E) 00:03:37 437.475
DUCHIFAT 1 28 Sep 23:56:20 00:00:09 31° 277° (W) 00:04:00 145.980
BUGSAT 1 28 Sep 23:56:37 00:00:47 78° 281° (W) 00:05:05 437.445
QB50P1 28 Sep 23:59:09 00:02:44 25° 275° (W) 00:06:21 145.935-145.965
VELOX 1 29 Sep 00:02:33 00:07:01 55° 80° (E) 00:11:25 145.980
ESTCUBE 1 29 Sep 00:04:49 00:09:20 65° 255° (WSW) 00:13:50 437.505/2401.250
JAS-2 29 Sep 00:05:32 00:11:56 49° 280° (W) 00:17:40 435.910
CUBEBUG 1 29 Sep 00:05:47 00:10:19 82° 76° (ENE) 00:14:46 437.445
POPSAT HIP 1 29 Sep 00:13:23 00:16:23 18° 274° (W) 00:19:26 437.405
Oscar 19 29 Sep 00:18:50 00:23:28 35° 111° (ESE) 00:28:10 437.125/150
PCSat 29 Sep 00:20:28 00:24:56 25° 129° (SE) 00:29:21 145.827
AIST 2 29 Sep 00:24:25 00:28:34 84° 118° (ESE) 00:32:39 435.215
50 SAT 29 Sep 00:26:34 00:30:12 67° 257° (WSW) 00:33:47 437.505
NANOSAT C BR1 29 Sep 00:30:45 00:32:36 12° 271° (W) 00:34:28 145.865
TISAT 1 29 Sep 00:31:00 00:32:07 11° 89° (E) 00:33:13 437.305
M-CUBED/EXP-1 PRIME 29 Sep 00:33:00 00:37:48 73° 74° (ENE) 00:42:27 437.505
Cosmos 2491 29 Sep 00:40:50 00:43:48 12° 105° (ESE) 00:46:46 435.465 / 435.565
YUBILEINY 29 Sep 00:41:35 00:49:04 29° 110° (ESE) 00:56:27 435.215
SPROUT 29 Sep 00:44:58 00:49:24 86° 261° (W) 00:53:43 437.525
AISAT 29 Sep 00:55:34 00:59:42 36° 251° (WSW) 01:03:49 437.250
UKube-1 29 Sep 00:59:54 01:04:18 70° 254° (WSW) 01:08:38 .
PHONESAT 2.4 29 Sep 01:06:08 01:09:04 50° 174° (S) 01:11:59 2401.200-2431.200
ITAMSAT 1 29 Sep 01:14:41 01:17:51 16° 118° (ESE) 01:21:02 435.822/435.867
Gurwin Techsat 1B 29 Sep 01:19:12 01:24:29 64° 107° (ESE) 01:29:49 435.225
Cosmos 2504 29 Sep 01:20:11 01:26:00 19° 116° (ESE) 01:31:31 435.465 / 435.565
DX 1 29 Sep 01:29:55 01:33:36 26° 249° (WSW) 01:37:14 434.975-435.025
AUBIESAT-1 29 Sep 01:30:06 01:34:21 35° 246° (WSW) 01:38:31 437.475
VELOX 1 29 Sep 01:40:43 01:42:58 14° 244° (WSW) 01:45:12 145.980
SO-50 29 Sep 01:41:27 01:44:24 18° 70° (ENE) 01:47:25 436.795
Oscar 19 29 Sep 01:58:37 02:02:49 25° 275° (W) 02:07:04 437.125/150
PCSat 29 Sep 02:03:20 02:08:32 46° 292° (WNW) 02:13:40 145.827
TISAT 1 29 Sep 02:03:50 02:08:06 57° 254° (WSW) 02:12:16 437.305
M-CUBED/EXP-1 PRIME 29 Sep 02:09:24 02:11:38 13° 238° (WSW) 02:13:51 437.505
AO-7 29 Sep 02:09:47 02:17:27 42° 117° (ESE) 02:25:11 29.400- 29.500
Cosmos 2491 29 Sep 02:30:16 02:39:00 75° 86° (E) 02:47:46 435.465 / 435.565
ITUPSAT 1 29 Sep 02:35:13 02:39:55 50° 80° (E) 02:44:33 437.325
YUBILEINY 29 Sep 02:37:38 02:46:19 59° 271° (W) 02:54:56 435.215
PHONESAT 2.4 29 Sep 02:42:17 02:45:14 58° 338° (NNW) 02:48:08 2401.200-2431.200
SWISSCUBE 29 Sep 02:47:57 02:52:48 79° 78° (ENE) 02:57:34 437.505
MOZHAYETS 4 29 Sep 02:48:38 02:49:39 11° 90° (E) 02:50:41
ITAMSAT 1 29 Sep 02:51:33 02:56:45 62° 282° (WNW) 03:02:01 435.822/435.867
BEESAT 29 Sep 03:00:53 03:05:44 85° 256° (WSW) 03:10:31 436.000
Gurwin Techsat 1B 29 Sep 03:01:57 03:04:50 15° 271° (W) 03:07:45 435.225
AIST 1 29 Sep 03:04:16 03:07:10 17° 107° (ESE) 03:10:03
KKS-1 29 Sep 03:10:02 03:11:25 11° 89° (E) 03:12:47 437.445
Cosmos 2504 29 Sep 03:11:50 03:20:32 83° 275° (W) 03:28:31 435.465 / 435.565
SO-50 29 Sep 03:20:15 03:24:30 43° 234° (SW) 03:28:51 436.795
O/OREOS (USA 219) 29 Sep 03:24:23 03:25:44 11° 126° (SE) 03:27:05 437.305
HORYU 2 29 Sep 03:26:22 03:28:27 13° 117° (ESE) 03:30:34 437.375
STARS 29 Sep 03:41:59 03:43:40 12° 89° (E) 03:45:21 437.465
AO-7 29 Sep 04:02:20 04:10:06 43° 280° (W) 04:18:00 29.400- 29.500
CUBESAT XI-V 29 Sep 04:10:12 04:10:42 10° 90° (E) 04:11:11 437.345
ITUPSAT 1 29 Sep 04:14:16 04:17:19 17° 244° (WSW) 04:20:21 437.325
PHONESAT 2.4 29 Sep 04:20:11 04:20:54 11° 324° (NW) 04:21:37 2401.200-2431.200
